SHT13W EGNT-EGLL

Flight info

Callsign SHT13W
Flight time 0h 59m
Altitude 25000
Route DCT NATEB P18 GASKO P16 RIBEL UP16 CROFT DCT NUGRA NUGRA2H
Aircraft A319/M-SDE2E3FGHIJ1RWXY/S

Departure

Time 2026-04-30 19:58
Airport Newcastle International Airport (EGNT)

Arrival

Time 2026-04-30 20:58
Airport London Heathrow Airport (EGLL)
Time Latitude Longitude Altitude Speed Heading
2026-04-30 19:16 55.03672 -1.70844 268 ft 0 kts
2026-04-30 19:47 55.03646 -1.70848 267 ft 3 kts
2026-04-30 19:47 55.03625 -1.70849 267 ft 4 kts 349°
2026-04-30 19:48 55.03602 -1.70842 267 ft 1 kts 359°
2026-04-30 19:48 55.03585 -1.70844 267 ft 0 kts
2026-04-30 19:54 55.03596 -1.70819 267 ft 4 kts 76°
2026-04-30 19:54 55.03595 -1.70740 267 ft 9 kts 94°
2026-04-30 19:54 55.03554 -1.70641 267 ft 14 kts 169°
2026-04-30 19:55 55.03475 -1.70646 267 ft 8 kts 181°
2026-04-30 19:55 55.03464 -1.70646 268 ft 0 kts 181°
2026-04-30 19:56 55.03461 -1.70646 268 ft 2 kts 181°
2026-04-30 19:56 55.03433 -1.70647 268 ft 6 kts 181°
2026-04-30 19:56 55.03375 -1.70616 268 ft 12 kts 126°
2026-04-30 19:57 55.03384 -1.70518 267 ft 0 kts 65°
2026-04-30 19:57 55.03418 -1.70389 266 ft 41 kts 65°
2026-04-30 19:57 55.03646 -1.69532 258 ft 113 kts 65°
2026-04-30 19:58 55.04061 -1.67960 389 ft 158 kts 66°
2026-04-30 19:58 55.04504 -1.66285 1183 ft 150 kts 69°
2026-04-30 19:58 55.04943 -1.64585 1720 ft 162 kts 72°
2026-04-30 19:58 55.05451 -1.62675 2031 ft 184 kts 74°
2026-04-30 19:59 55.06006 -1.60520 2371 ft 205 kts 81°
2026-04-30 19:59 55.05924 -1.58065 2750 ft 211 kts 123°
2026-04-30 19:59 55.03221 -1.56323 3991 ft 241 kts 194°
2026-04-30 20:00 55.01648 -1.57470 4993 ft 247 kts 201°
2026-04-30 20:00 55.00067 -1.58690 5956 ft 250 kts 200°
2026-04-30 20:00 54.98464 -1.59922 6909 ft 254 kts 200°
2026-04-30 20:00 54.96836 -1.61160 7812 ft 257 kts 200°
2026-04-30 20:01 54.93513 -1.63654 9656 ft 263 kts 200°
2026-04-30 20:01 54.91839 -1.64910 10451 ft 270 kts 200°
2026-04-30 20:01 54.90038 -1.66257 10744 ft 293 kts 200°
2026-04-30 20:02 54.86079 -1.69204 11728 ft 319 kts 200°
2026-04-30 20:02 54.84028 -1.70731 12477 ft 322 kts 200°
2026-04-30 20:03 54.79870 -1.73827 13943 ft 329 kts 200°
2026-04-30 20:03 54.77751 -1.75399 14587 ft 333 kts 200°
2026-04-30 20:03 54.75611 -1.76985 15197 ft 337 kts 200°
2026-04-30 20:03 54.73438 -1.78599 15805 ft 341 kts 200°
2026-04-30 20:04 54.71223 -1.80134 16386 ft 345 kts 195°
2026-04-30 20:04 54.68876 -1.81041 16974 ft 348 kts 188°
2026-04-30 20:04 54.66482 -1.81789 17585 ft 352 kts 188°
2026-04-30 20:05 54.61604 -1.83326 18759 ft 360 kts 188°
2026-04-30 20:05 54.59126 -1.84110 19325 ft 363 kts 188°
2026-04-30 20:05 54.54138 -1.85695 20524 ft 367 kts 189°
2026-04-30 20:06 54.51621 -1.86493 21124 ft 369 kts 188°
2026-04-30 20:06 54.49089 -1.87292 21727 ft 370 kts 188°
2026-04-30 20:06 54.46548 -1.88087 22300 ft 372 kts 188°
2026-04-30 20:06 54.43990 -1.88887 22855 ft 374 kts 188°
2026-04-30 20:07 54.41425 -1.89690 23402 ft 376 kts 188°
2026-04-30 20:07 54.38844 -1.90498 23910 ft 378 kts 188°
2026-04-30 20:07 54.33642 -1.92127 24803 ft 382 kts 188°
2026-04-30 20:08 54.31022 -1.92950 25166 ft 383 kts 188°
2026-04-30 20:08 54.28406 -1.93763 25247 ft 379 kts 188°
2026-04-30 20:08 54.25835 -1.94555 25267 ft 373 kts 188°
2026-04-30 20:08 54.23288 -1.95343 25266 ft 372 kts 188°
2026-04-30 20:09 54.20743 -1.96128 25264 ft 372 kts 188°
2026-04-30 20:09 54.18196 -1.96897 25263 ft 372 kts 188°
2026-04-30 20:09 54.13101 -1.98405 25263 ft 372 kts 188°
2026-04-30 20:10 54.08006 -1.99920 25258 ft 372 kts 188°
2026-04-30 20:10 54.05457 -2.00676 25257 ft 371 kts 188°
2026-04-30 20:10 54.02911 -2.01426 25256 ft 371 kts 188°
2026-04-30 20:11 53.97826 -2.02933 25249 ft 371 kts 188°
2026-04-30 20:11 53.95285 -2.03684 25249 ft 371 kts 188°
2026-04-30 20:11 53.92745 -2.04433 25240 ft 370 kts 188°
2026-04-30 20:12 53.87666 -2.05928 25237 ft 370 kts 188°
2026-04-30 20:12 53.85126 -2.06674 25236 ft 370 kts 188°
2026-04-30 20:12 53.82587 -2.07415 25227 ft 370 kts 188°
2026-04-30 20:13 53.80052 -2.08157 25229 ft 370 kts 188°
2026-04-30 20:13 53.77511 -2.08900 25247 ft 370 kts 187°
2026-04-30 20:13 53.74978 -2.09640 25250 ft 369 kts 187°
2026-04-30 20:13 53.72445 -2.10380 25246 ft 369 kts 187°
2026-04-30 20:14 53.69921 -2.11116 25239 ft 368 kts 187°
2026-04-30 20:14 53.67393 -2.11854 25236 ft 368 kts 187°
2026-04-30 20:14 53.64870 -2.12594 25234 ft 368 kts 187°
2026-04-30 20:14 53.62351 -2.13336 25232 ft 368 kts 187°
2026-04-30 20:15 53.59834 -2.14073 25228 ft 367 kts 187°
2026-04-30 20:15 53.57316 -2.14804 25227 ft 367 kts 187°
2026-04-30 20:15 53.54792 -2.15535 25225 ft 367 kts 187°
2026-04-30 20:15 53.52274 -2.16263 25220 ft 367 kts 187°
2026-04-30 20:16 53.49753 -2.16993 25221 ft 367 kts 187°
2026-04-30 20:16 53.47270 -2.17711 25219 ft 367 kts 187°
2026-04-30 20:16 53.44721 -2.18451 25217 ft 367 kts 187°
2026-04-30 20:16 53.42241 -2.19170 25212 ft 367 kts 187°
2026-04-30 20:17 53.39728 -2.19897 25211 ft 367 kts 187°
2026-04-30 20:17 53.37208 -2.20623 25210 ft 367 kts 187°
2026-04-30 20:17 53.34692 -2.21343 25211 ft 367 kts 187°
2026-04-30 20:17 53.32172 -2.22059 25211 ft 367 kts 187°
2026-04-30 20:18 53.29648 -2.22778 25212 ft 367 kts 187°
2026-04-30 20:18 53.27128 -2.23496 25214 ft 368 kts 187°
2026-04-30 20:18 53.24608 -2.24214 25215 ft 367 kts 187°
2026-04-30 20:18 53.22088 -2.24934 25218 ft 367 kts 187°
2026-04-30 20:19 53.19569 -2.25659 25216 ft 367 kts 187°
2026-04-30 20:19 53.17895 -2.26142 25214 ft 367 kts 187°
2026-04-30 20:19 53.14525 -2.27109 25212 ft 367 kts 187°
2026-04-30 20:19 53.12008 -2.27821 25209 ft 367 kts 187°
2026-04-30 20:20 53.09484 -2.28533 25207 ft 367 kts 187°
2026-04-30 20:20 53.06967 -2.29217 25204 ft 367 kts 184°
2026-04-30 20:20 53.04425 -2.29284 25203 ft 365 kts 173°
2026-04-30 20:20 53.01943 -2.28477 25199 ft 364 kts 162°
2026-04-30 20:21 52.99616 -2.26834 25199 ft 365 kts 152°
2026-04-30 20:21 52.97462 -2.24598 25199 ft 365 kts 149°
2026-04-30 20:21 52.95320 -2.22336 25203 ft 365 kts 149°
2026-04-30 20:21 52.93174 -2.20082 25202 ft 366 kts 149°
2026-04-30 20:22 52.91020 -2.17830 25202 ft 366 kts 149°
2026-04-30 20:22 52.88864 -2.15588 25201 ft 366 kts 149°
2026-04-30 20:22 52.86710 -2.13352 25201 ft 366 kts 149°
2026-04-30 20:22 52.84557 -2.11111 25201 ft 366 kts 149°
2026-04-30 20:23 52.82408 -2.08871 25200 ft 366 kts 149°
2026-04-30 20:23 52.80250 -2.06622 25200 ft 366 kts 149°
2026-04-30 20:23 52.78098 -2.04384 25200 ft 366 kts 149°
2026-04-30 20:23 52.75945 -2.02147 25200 ft 366 kts 149°
2026-04-30 20:24 52.73789 -1.99913 25188 ft 366 kts 149°
2026-04-30 20:24 52.72365 -1.98436 25189 ft 366 kts 149°
2026-04-30 20:24 52.70206 -1.96197 25190 ft 366 kts 149°
2026-04-30 20:24 52.68046 -1.93966 25192 ft 366 kts 149°
2026-04-30 20:25 52.63722 -1.89516 25189 ft 367 kts 149°
2026-04-30 20:25 52.61560 -1.87288 25196 ft 367 kts 149°
2026-04-30 20:26 52.57237 -1.82834 25199 ft 367 kts 149°
2026-04-30 20:26 52.52907 -1.78383 25181 ft 367 kts 149°
2026-04-30 20:26 52.50741 -1.76166 24944 ft 367 kts 149°
2026-04-30 20:27 52.46416 -1.71739 24471 ft 365 kts 149°
2026-04-30 20:27 52.42141 -1.67388 24006 ft 362 kts 149°
2026-04-30 20:28 52.37878 -1.63056 23468 ft 353 kts 149°
2026-04-30 20:28 52.33764 -1.58878 22669 ft 343 kts 149°
2026-04-30 20:29 52.29774 -1.54842 21908 ft 333 kts 149°
2026-04-30 20:30 52.23985 -1.48990 20730 ft 321 kts 149°
2026-04-30 20:30 52.18540 -1.42259 19642 ft 343 kts 140°
2026-04-30 20:31 52.13091 -1.34658 18595 ft 343 kts 140°
2026-04-30 20:32 52.07714 -1.27178 17518 ft 338 kts 140°
2026-04-30 20:32 52.04133 -1.22202 16827 ft 335 kts 140°
2026-04-30 20:33 52.02390 -1.19785 16455 ft 333 kts 140°
2026-04-30 20:33 51.98883 -1.14952 15780 ft 329 kts 141°
2026-04-30 20:33 51.97140 -1.12555 15448 ft 328 kts 141°
2026-04-30 20:34 51.93663 -1.07764 14344 ft 332 kts 141°
2026-04-30 20:34 51.90291 -1.03119 14020 ft 301 kts 141°
2026-04-30 20:35 51.88739 -1.00980 13892 ft 285 kts 141°
2026-04-30 20:35 51.87270 -0.98957 13756 ft 270 kts 141°
2026-04-30 20:35 51.84823 -0.94726 13124 ft 255 kts 120°
2026-04-30 20:36 51.84040 -0.92149 12617 ft 255 kts 119°
2026-04-30 20:36 51.83264 -0.89591 12126 ft 253 kts 119°
2026-04-30 20:36 51.81715 -0.84513 11173 ft 250 kts 119°
2026-04-30 20:37 51.80951 -0.82012 10773 ft 247 kts 119°
2026-04-30 20:37 51.80192 -0.79537 10438 ft 245 kts 119°
2026-04-30 20:37 51.79439 -0.77086 10124 ft 244 kts 119°
2026-04-30 20:37 51.78686 -0.74641 9783 ft 244 kts 119°
2026-04-30 20:38 51.77932 -0.72193 9448 ft 244 kts 119°
2026-04-30 20:38 51.77176 -0.69737 9117 ft 244 kts 118°
2026-04-30 20:38 51.76422 -0.67284 8809 ft 244 kts 118°
2026-04-30 20:39 51.74910 -0.62385 8199 ft 244 kts 118°
2026-04-30 20:39 51.74159 -0.59950 7950 ft 242 kts 118°
2026-04-30 20:39 51.73406 -0.57521 7648 ft 242 kts 120°
2026-04-30 20:40 51.70695 -0.54782 7245 ft 235 kts 181°
2026-04-30 20:40 51.69148 -0.55551 7211 ft 237 kts 212°
2026-04-30 20:40 51.68075 -0.57566 7213 ft 244 kts 243°
2026-04-30 20:41 51.67980 -0.63073 7214 ft 252 kts 275°
2026-04-30 20:41 51.68234 -0.65842 7211 ft 253 kts 278°
2026-04-30 20:41 51.68937 -0.68428 7207 ft 257 kts 308°
2026-04-30 20:41 51.70357 -0.70139 7207 ft 259 kts 340°
2026-04-30 20:42 51.72123 -0.70499 7208 ft 257 kts 11°
2026-04-30 20:42 51.73741 -0.69427 7143 ft 252 kts 41°
2026-04-30 20:42 51.74932 -0.64595 7032 ft 236 kts 105°
2026-04-30 20:43 51.74203 -0.62302 7029 ft 231 kts 137°
2026-04-30 20:43 51.72830 -0.61044 7062 ft 230 kts 168°
2026-04-30 20:43 51.71230 -0.60874 7032 ft 232 kts 180°
2026-04-30 20:44 51.67999 -0.61012 7032 ft 233 kts 181°
2026-04-30 20:44 51.66430 -0.61247 7019 ft 221 kts 196°
2026-04-30 20:44 51.64649 -0.64689 7034 ft 205 kts 252°
2026-04-30 20:45 51.64080 -0.69150 7025 ft 202 kts 256°
2026-04-30 20:45 51.63819 -0.71382 7024 ft 203 kts 256°
2026-04-30 20:45 51.63556 -0.73609 7028 ft 203 kts 256°
2026-04-30 20:46 51.62772 -0.80289 7022 ft 203 kts 256°
2026-04-30 20:46 51.62509 -0.82513 7022 ft 203 kts 256°
2026-04-30 20:47 51.61989 -0.86926 6442 ft 201 kts 256°
2026-04-30 20:47 51.61728 -0.89127 6095 ft 200 kts 256°
2026-04-30 20:48 51.61215 -0.93479 5407 ft 196 kts 251°
2026-04-30 20:48 51.60498 -0.95215 5073 ft 184 kts 211°
2026-04-30 20:48 51.59315 -0.95790 5014 ft 179 kts 185°
2026-04-30 20:48 51.58068 -0.95913 5011 ft 179 kts 181°
2026-04-30 20:49 51.56828 -0.95981 4907 ft 176 kts 181°
2026-04-30 20:49 51.55597 -0.96046 4535 ft 177 kts 180°
2026-04-30 20:49 51.54371 -0.96132 4210 ft 175 kts 180°
2026-04-30 20:50 51.51984 -0.96132 4005 ft 170 kts 158°
2026-04-30 20:50 51.51091 -0.94906 4011 ft 173 kts 130°
2026-04-30 20:50 51.50422 -0.93335 4009 ft 172 kts 126°
2026-04-30 20:50 51.49772 -0.91725 4016 ft 172 kts 126°
2026-04-30 20:51 51.49110 -0.90088 4021 ft 172 kts 126°
2026-04-30 20:51 51.47824 -0.86871 4016 ft 173 kts 122°
2026-04-30 20:51 51.47537 -0.84974 4020 ft 181 kts 96°
2026-04-30 20:52 51.47551 -0.82955 4026 ft 181 kts 95°
2026-04-30 20:52 51.47569 -0.80935 3958 ft 181 kts 95°
2026-04-30 20:52 51.47599 -0.76998 3560 ft 170 kts 96°
2026-04-30 20:53 51.47611 -0.75141 3348 ft 163 kts 97°
2026-04-30 20:53 51.47622 -0.73355 3136 ft 157 kts 97°
2026-04-30 20:53 51.47632 -0.71619 2929 ft 154 kts 97°
2026-04-30 20:54 51.47652 -0.68226 2525 ft 151 kts 97°
2026-04-30 20:54 51.47661 -0.66554 2327 ft 149 kts 97°
2026-04-30 20:54 51.47670 -0.64908 2131 ft 147 kts 96°
2026-04-30 20:55 51.47687 -0.61648 1744 ft 146 kts 96°
2026-04-30 20:55 51.47696 -0.60017 1544 ft 146 kts 95°
2026-04-30 20:55 51.47704 -0.58390 1345 ft 146 kts 94°
2026-04-30 20:56 51.47720 -0.55171 961 ft 136 kts 92°
2026-04-30 20:56 51.47726 -0.53686 718 ft 128 kts 91°
2026-04-30 20:56 51.47729 -0.50899 432 ft 123 kts 89°
2026-04-30 20:57 51.47744 -0.49528 258 ft 122 kts 88°
2026-04-30 20:57 51.47750 -0.48184 116 ft 120 kts 88°
2026-04-30 20:57 51.47755 -0.46969 90 ft 91 kts 90°
2026-04-30 20:58 51.47639 -0.46075 87 ft 23 kts 153°
2026-04-30 20:58 51.47595 -0.46174 88 ft 13 kts 270°
2026-04-30 20:58 51.47594 -0.46343 88 ft 17 kts 269°
2026-04-30 20:58 51.47593 -0.46546 86 ft 19 kts 269°
2026-04-30 20:59 51.47582 -0.47023 88 ft 24 kts 269°
2026-04-30 20:59 51.47582 -0.47300 89 ft 26 kts 269°
2026-04-30 21:00 51.47580 -0.47804 86 ft 20 kts 268°
2026-04-30 21:00 51.47399 -0.47873 86 ft 6 kts 180°
2026-04-30 21:01 51.47329 -0.47996 86 ft 10 kts 268°
2026-04-30 21:01 51.47329 -0.48025 86 ft 2 kts 270°
2026-04-30 21:01 51.47329 -0.48031 86 ft 0 kts 270°